Weather in Ornskoldsvik

Sweden     63°17′20″N   18°43′13″E
temp.,
°C
wind,
m/s
gust,
m/s
humid.,
%
clouds,
%
prec.,
mm/h
press.,
hPa
HPBL,
m
19 april, mon
mon1923:000nw01885 0.0 103110
02:000nw11885 0.0 103010
05:00−4nnw11905 0.0 103012
08:00+3wnw11795 0.0 102938
11:00+6s2273100 0.0 1029180
14:00+5s2472100 0.0 1029197
17:00+5s247453 0.0 1027130
20:00+1sse118720 0.0 102713
20 april, tue
tue2023:000ssw11855 0.0 102610
02:000se01885 0.0 102510
05:00−1sse11915 0.0 102310
08:00+4sse23804 0.0 1022109
11:00+5sse378030 0.0 1020249
14:00+5s487732 0.0 1018300
17:00+4s3879100 0.0 1016238
20:00+2sse2389100 0.0 101466
21 april, wed
wed2123:00+2s2489100 0.0 101286
02:00+1sse2590100 0.0 1010104
05:00+2sse398989 0.0 1007234
08:00+3sse4118414 0.0 1007334
11:00+5s510754 0.0 1006465
14:00+5sse377124 0.0 1005422
17:00+5se247181 0.0 1004280
20:00+3ene118276 0.0 100420
22 april, thu
thu2223:00+2n228356 0.0 100316
02:00+2nnw2281100 0.0 100425
05:00+2nw389164 0.0 1005228
08:00+3nnw51077100 0.0 1006553
11:00+5nnw686669 0.0 1007744
14:00+6nnw5856100 0.0 10081133
17:00+7nw4645100 0.0 10081558
20:00+4nnw48502 0.0 1010186
23 april, fri
fri2323:00+1nw33662 0.0 101043
02:00+1nw49600 0.0 1011435
05:000nnw511695 0.0 1010774
08:00+3nw59475 0.0 10101190
11:00+5nnw693663 0.0 10091562
14:00+6nnw6936100 0.0 10082027
17:00+5nw6104913 0.0 10081408
20:00+2nw7136999 0.0 10081046